Portada
METAR-TAF:

METAR-TAF

Aeropuertos :

Base Aérea de Valencia-Bétera

Valencia, España

latitud: 39-37-26N, longitud: 0-28-26W, altitud: 127 m

Observación

El informe se hizo hace 36 minutos, a las 12:00 UTC
Viento calma
Temperatura 16°C
Humedad 100%
Presión 1018 hPa
Visibilidad: 1900 m
Nubes dispersas a una altura de 5000 ft
neblina

METAR: LEBT 151200Z AUTO 00000KT 1900 BR SCT050 16/16 Q1018

Hora: 13:36 (12:36 UTC)


TAF: falta

Observaciones y pronósticos meteorológicos de más de 4000 aeropuertos (mensajes METAR y TAF).

Los puntos amarillos y rojos representan las estaciones disponibles.

Ponga el ratón en el punto deseado para ver el nombre de la estación.

Haga clic para ver las observaciones y los pronósticos meteorológicos.

Para cambiar el mapa : haga clic en los botones verdes con una cruz de color negro para hacer un zoom, en el botón verde con un guión para alejar o en las flechas verdes para mapas adyacentes.


METAR-TAF: